Aniak, AK

3:30 PM AKDT on August 30, 2016 (GMT -0800)
Aniak

Weather History for PANI - July, 2013

Change the Weather History Date:

Saturday, July 27, 2013

  Actual Average Record
Temperature  
Mean Temperature 68 °F -  
Max Temperature 84 °F 60 °F 84 °F (2013)
Min Temperature 51 °F 47 °F 39 °F (2014)
Cooling Degree Days 2    
Growing Degree Days 18 (Base 50)    
Moisture  
Dew Point 56 °F    
Average Humidity 66    
Maximum Humidity 94    
Minimum Humidity 30    
Precipitation  
Precipitation 0.00 in - - ()
Sea Level Pressure  
Sea Level Pressure 30.26 in    
Wind  
Wind Speed 2 mph (WSW)    
Max Wind Speed 8 mph    
Max Gust Speed 16 mph    
Visibility 10 miles    
Events      
Averages and records for this station are not official NWS values.
T = Trace of Precipitation, MM = Missing Value Source: NWS Daily Summary

Daily Weather History Graph

Daily Weather History Graph

Search for Another Location

Airport or City:

Trip Planner

Search our weather history database for the weather conditions in past years. The results will help you decide how hot, cold, wet, or windy it might be!

Date:

Astronomy

Jul. 27, 2013 Rise Set
Actual Time 5:55 AM AKDT 11:31 PM AKDT
Civil Twilight 4:41 AM AKDT 12:44 AM AKDT
Nautical Twilight Sun does not set 2:12 AM AKDT
Astronomical Twilight Sun does not set Sun does not set
Moon No Moon Rise 1:57 PM AKDT (7/27)
Length of Visible Light 20h 02m
Length of Day
17h 35m
Waning Gibbous, 69% of the Moon is Illuminated
Jul 27
Waning Gibbous
Jul 29
Last Quarter
Aug 6
New
Aug 14
First Quarter
Aug 20
Full

Hourly Weather History & Observations

Time (AKDT) Temp. Heat Index Dew Point Humidity Pressure Visibility Wind Dir Wind Speed Gust Speed Precip Events Conditions
12:16 AM 64.4 °F - 57.2 °F 77% 30.23 in 10.0 mi Calm Calm - N/A   Clear
12:36 AM 62.6 °F - 57.2 °F 82% 30.23 in 10.0 mi Calm Calm - N/A   Clear
12:56 AM 60.8 °F - 55.4 °F 82% 30.24 in 9.0 mi Calm Calm - N/A   Clear
1:16 AM 60.8 °F - 55.4 °F 82% 30.24 in 10.0 mi Calm Calm - N/A   Clear
1:36 AM 60.8 °F - 55.4 °F 82% 30.25 in 10.0 mi Calm Calm - N/A   Clear
1:56 AM 59.0 °F - 55.4 °F 88% 30.25 in 10.0 mi Calm Calm - N/A   Clear
2:16 AM 59.0 °F - 55.4 °F 88% 30.25 in 9.0 mi Calm Calm - N/A   Clear
2:36 AM 57.2 °F - 55.4 °F 94% 30.26 in 10.0 mi Calm Calm - N/A   Clear
2:56 AM 59.0 °F - 55.4 °F 88% 30.26 in 10.0 mi Calm Calm - N/A   Clear
3:16 AM 57.2 °F - 55.4 °F 94% 30.26 in 10.0 mi Calm Calm - N/A   Clear
3:36 AM 57.2 °F - 53.6 °F 88% 30.26 in 10.0 mi Calm Calm - N/A   Clear
3:56 AM 57.2 °F - 53.6 °F 88% 30.26 in 10.0 mi Calm Calm - N/A   Clear
4:16 AM 55.4 °F - 53.6 °F 94% 30.26 in 10.0 mi Calm Calm - N/A   Clear
4:36 AM 55.4 °F - 53.6 °F 94% 30.26 in 10.0 mi Calm Calm - N/A   Clear
4:56 AM 55.4 °F - 53.6 °F 94% 30.26 in 10.0 mi Calm Calm - N/A   Clear
5:16 AM 55.4 °F - 51.8 °F 88% 30.27 in 10.0 mi ESE 4.6 mph - N/A   Clear
5:36 AM 55.4 °F - 53.6 °F 94% 30.27 in 10.0 mi Calm Calm - N/A   Clear
5:56 AM 55.4 °F - 51.8 °F 88% 30.27 in 10.0 mi Calm Calm - N/A   Clear
6:16 AM 53.6 °F - 48.2 °F 82% 30.27 in 10.0 mi Calm Calm - N/A   Clear
6:36 AM 53.6 °F - 50.0 °F 88% 30.27 in 10.0 mi Calm Calm - N/A   Clear
6:56 AM 53.6 °F - 51.8 °F 94% 30.27 in 10.0 mi East 4.6 mph - N/A   Clear
7:16 AM 55.4 °F - 53.6 °F 94% 30.27 in 10.0 mi East 5.8 mph - N/A   Clear
7:36 AM 57.2 °F - 53.6 °F 88% 30.27 in 10.0 mi ESE 6.9 mph - N/A   Clear
7:56 AM 57.2 °F - 53.6 °F 88% 30.28 in 10.0 mi ESE 4.6 mph - N/A   Clear
8:16 AM 59.0 °F - 55.4 °F 88% 30.28 in 10.0 mi East 5.8 mph - N/A   Clear
8:36 AM 60.8 °F - 55.4 °F 82% 30.28 in 10.0 mi ESE 4.6 mph - N/A   Clear
8:56 AM 60.8 °F - 55.4 °F 82% 30.28 in 10.0 mi Calm Calm - N/A   Clear
9:16 AM 62.6 °F - 55.4 °F 77% 30.28 in 10.0 mi East 6.9 mph - N/A   Clear
9:36 AM 64.4 °F - 55.4 °F 73% 30.28 in 10.0 mi East 5.8 mph - N/A   Clear
9:56 AM 64.4 °F - 55.4 °F 73% 30.29 in 10.0 mi ESE 4.6 mph - N/A   Clear
10:16 AM 66.2 °F - 57.2 °F 73% 30.29 in 10.0 mi SE 3.5 mph - N/A   Clear
10:36 AM 68.0 °F - 57.2 °F 68% 30.29 in 10.0 mi SE 3.5 mph - N/A   Clear
10:56 AM 69.8 °F - 59.0 °F 68% 30.29 in 10.0 mi ESE 4.6 mph - N/A   Clear
11:16 AM 69.8 °F - 59.0 °F 68% 30.28 in 10.0 mi Calm Calm - N/A   Clear
11:36 AM 71.6 °F - 60.8 °F 69% 30.28 in 10.0 mi Calm Calm - N/A   Clear
11:56 AM 71.6 °F - 60.8 °F 69% 30.28 in 10.0 mi Calm Calm - N/A   Clear
12:16 PM 73.4 °F - 57.2 °F 57% 30.28 in 10.0 mi Calm Calm - N/A   Clear
12:36 PM 75.2 °F - 57.2 °F 53% 30.28 in 10.0 mi Calm Calm - N/A   Clear
12:56 PM 77.0 °F - 57.2 °F 50% 30.28 in 10.0 mi East 3.5 mph - N/A   Clear
1:16 PM 78.8 °F - 57.2 °F 47% 30.27 in 10.0 mi Calm Calm - N/A   Clear
1:36 PM 78.8 °F - 55.4 °F 44% 30.27 in 10.0 mi Calm Calm - N/A   Clear
1:56 PM 80.6 °F 80.8 °F 57.2 °F 45% 30.27 in 10.0 mi Calm Calm - N/A   Clear
2:16 PM 80.6 °F 80.5 °F 55.4 °F 42% 30.26 in 10.0 mi Calm Calm - N/A   Clear
2:36 PM 80.6 °F 80.5 °F 55.4 °F 42% 30.26 in 10.0 mi Calm Calm - N/A   Clear
2:56 PM 80.6 °F 80.5 °F 55.4 °F 42% 30.26 in 10.0 mi Calm Calm - N/A   Clear
3:16 PM 82.4 °F 81.7 °F 55.4 °F 39% 30.25 in 10.0 mi SW 3.5 mph - N/A   Clear
3:36 PM 82.4 °F 81.7 °F 55.4 °F 39% 30.25 in 10.0 mi Calm Calm - N/A   Clear
3:56 PM 82.4 °F 81.7 °F 55.4 °F 39% 30.25 in 10.0 mi North 3.5 mph - N/A   Clear
4:16 PM 82.4 °F 81.7 °F 55.4 °F 39% 30.24 in 10.0 mi WSW 3.5 mph - N/A   Clear
4:36 PM 82.4 °F 81.7 °F 55.4 °F 39% 30.24 in 10.0 mi Calm Calm - N/A   Clear
4:56 PM 84.2 °F 83.5 °F 57.2 °F 40% 30.23 in 10.0 mi WNW 4.6 mph - N/A   Clear
5:16 PM 84.2 °F 83.5 °F 57.2 °F 40% 30.23 in 10.0 mi NW 4.6 mph - N/A   Clear
5:36 PM 84.2 °F 83.0 °F 55.4 °F 37% 30.23 in 10.0 mi WNW 3.5 mph - N/A   Clear
5:56 PM 84.2 °F 83.0 °F 55.4 °F 37% 30.22 in 10.0 mi SW 3.5 mph - N/A   Clear
6:16 PM 84.2 °F 83.0 °F 55.4 °F 37% 30.22 in 10.0 mi West 5.8 mph - N/A   Clear
6:36 PM 84.2 °F 83.0 °F 55.4 °F 37% 30.22 in 10.0 mi West 5.8 mph - N/A   Clear
6:56 PM 84.2 °F 83.5 °F 57.2 °F 40% 30.22 in 10.0 mi WNW 5.8 mph - N/A   Clear
7:16 PM 84.2 °F 83.5 °F 57.2 °F 40% 30.22 in 10.0 mi West 4.6 mph - N/A   Clear
7:36 PM 82.4 °F 82.0 °F 57.2 °F 42% 30.22 in 10.0 mi NW 4.6 mph - N/A   Clear
7:56 PM 82.4 °F 82.0 °F 57.2 °F 42% 30.22 in 10.0 mi West 4.6 mph - N/A   Clear
8:16 PM 82.4 °F 82.5 °F 59.0 °F 45% 30.22 in 10.0 mi WNW 4.6 mph - N/A   Clear
8:36 PM 80.6 °F 81.1 °F 59.0 °F 48% 30.22 in 10.0 mi Calm Calm - N/A   Clear
8:56 PM 80.6 °F 81.8 °F 62.6 °F 54% 30.23 in 10.0 mi WSW 8.1 mph - N/A   Clear
9:16 PM 78.8 °F - 60.8 °F 54% 30.23 in 10.0 mi WSW 8.1 mph - N/A   Clear
9:36 PM 77.0 °F - 62.6 °F 61% 30.24 in 10.0 mi West 5.8 mph 16.1 mph N/A   Clear
9:56 PM 75.2 °F - 60.8 °F 61% 30.24 in 10.0 mi West 4.6 mph - N/A   Clear
10:16 PM 73.4 °F - 60.8 °F 65% 30.25 in 10.0 mi WSW 4.6 mph - N/A   Clear
10:36 PM 71.6 °F - 60.8 °F 69% 30.25 in 10.0 mi West 5.8 mph - N/A   Clear
10:56 PM 71.6 °F - 60.8 °F 69% 30.25 in 10.0 mi WNW 4.6 mph - N/A   Clear
11:16 PM 69.8 °F - 60.8 °F 73% 30.25 in 10.0 mi West 4.6 mph - N/A   Clear
11:36 PM 69.8 °F - 60.8 °F 73% 30.26 in 10.0 mi Calm Calm - N/A   Clear
11:56 PM 68.0 °F - 60.8 °F 78% 30.26 in 10.0 mi Calm Calm - N/A   Clear